Regional Weather Roundup
Issued by NWS Charleston, WV

Home | Current Version | Previous Version | Graphics & Text | Print | Product List | Glossary On
Versions: 1 2 3 4 5 6 7 8 9 10 11 12 13 14 15 16 17 18 19 20 21 22 23 24 25 26 27 28 29 30 31 32 33 34 35 36 37 38 39 40 41 42 43 44 45 46 47 48 49 50
000
ASUS41 KRLX 051410
RWRRLX
West Virginia Regional Weather Roundup
National Weather Service Charleston WV
900 AM EST THU MAR 05 2015

Note: "fair" indicates few or no clouds below 12,000 feet with no
significant weather and/or obstructions to visibility.

WVZ003-051500-
Northern Panhandle of West Virginia

CITY           SKY/WX    TMP DP  RH WIND       PRES   REMARKS
WHEELING       LGT SNOW  15  10  80 N8        30.22F VSB 3/4 WCI   4
$$

WVZ009-051500-
Northwest West Virginia

CITY           SKY/WX    TMP DP  RH WIND       PRES   REMARKS
PARKERSBURG    SNOW      19  15  84 N8        30.29R VSB 1/2 WCI   9
$$

WVZ006-051500-
Western West Virginia

CITY           SKY/WX    TMP DP  RH WIND       PRES   REMARKS
HUNTINGTON     HVY SNOW  19  17  92 NW9       30.27R VSB 1/4 WCI   8
$$

WVZ015-051500-
West Central West Virginia

CITY           SKY/WX    TMP DP  RH WIND       PRES   REMARKS
CHARLESTON     LGT SNOW  24  21  88 NW5       30.21R VSB 1
$$

WVZ022-031-051500-
North Central West Virginia

CITY           SKY/WX    TMP DP  RH WIND       PRES   REMARKS
CLARKSBURG     NOT AVBL
MORGANTOWN     NOT AVBL
$$

WVZ025-035-042-045-051500-
Southern West Virginia

CITY           SKY/WX    TMP DP  RH WIND       PRES   REMARKS
BECKLEY        LGT SNOW  24  21  88 N10       30.07R FOG
LOGAN          SNOW      23  21  93 N6        30.12R VSB 1/4
BLUEFIELD      FRZ RAIN  31  26  82 VRB5      30.03R
LEWISBURG      MIX PCPN  33  32  96 W7        30.03R
$$

WVZ047-051500-
Northern Mountains of West Virginia

CITY           SKY/WX    TMP DP  RH WIND       PRES   REMARKS
ELKINS         LGT SNOW  23  22  96 NW3       30.08R VSB 1
$$

WVZ052-051500-
Eastern Panhandle of West Virginia

CITY           SKY/WX    TMP DP  RH WIND       PRES   REMARKS
MARTINSBURG    SNOW      28  25  86 N12G20    30.16R VSB 1/4
PETERSBURG     CLOUDY   N/A N/A N/A CALM      30.14F VSB 1/2
$$


USA.gov is the U.S. government's official web portal to all federal, state and local government web resources and services.